This demonstration page uses our WeatherBlox Daily Observations layout. Learn more.

Left ArrowRight Arrow

38.20091, -84.87328

Hourly Observations for October 20, 2021

Temp ( °F °C ) Dew Point ( °F °C ) Humidity (%) Winds ( mph kmh ) Pressure ( in mb ) Visibility ( mi km ) Precip ( " mm )
12:53 am 00:53 Clear 49 9.4 47 8.3 93 93 N N/A 30.17 1022 10 16 N/A
1:53 am 01:53 Clear 47 8.3 45 7.2 93 93 N N/A 30.18 1022 10 16 N/A
2:53 am 02:53 Clear 47 8.3 45 7.2 93 93 N N/A 30.19 1022 10 16 N/A
3:53 am 03:53 Clear 46 7.8 44 6.7 93 93 N N/A 30.19 1022 10 16 N/A
4:53 am 04:53 Clear 46 7.8 44 6.7 93 93 N N/A 30.19 1023 10 16 N/A
5:53 am 05:53 Clear 46 7.8 45 7.2 96 96 N N/A 30.21 1023 10 16 N/A
6:53 am 06:53 Clear 44 6.7 42 5.6 93 93 SSE 3 6 30.22 1023 10 16 N/A
7:53 am 07:53 Clear 45 7.2 43 6.1 93 93 SE 3 6 30.22 1024 10 16 N/A
8:53 am 08:53 Sunny 50 10 48 8.9 93 93 N N/A 30.23 1024 10 16 N/A
9:53 am 09:53 Sunny 57 13.9 51 10.6 81 81 SSW 7 11 30.24 1024 10 16 N/A
10:53 am 10:53 Sunny 63 17.2 53 11.7 70 70 SSW 6 9 30.24 1024 10 16 N/A
11:53 am 11:53 Sunny 67 19.4 53 11.7 61 61 WSW 8 13 30.23 1024 10 16 N/A
12:53 pm 12:53 Sunny 69 20.6 52 11.1 55 55 WSW 10 17 30.22 1023 10 16 N/A
1:53 pm 13:53 Sunny 71 21.7 52 11.1 51 51 WSW 10 17 30.18 1022 10 16 N/A
2:53 pm 14:53 Sunny 72 22.2 50 10 46 46 SW 10 17 30.15 1021 10 16 N/A
3:53 pm 15:53 Sunny 73 22.8 50 10 44 44 S 10 17 30.13 1020 10 16 N/A
4:53 pm 16:53 Sunny 72 22.2 50 10 46 46 SSW 8 13 30.12 1020 10 16 N/A
5:53 pm 17:53 Sunny 71 21.7 50 10 47 47 SSW 10 17 30.11 1020 10 16 N/A
6:53 pm 18:53 Sunny 66 18.9 52 11.1 61 61 N N/A 30.11 1020 10 16 N/A
7:53 pm 19:53 Clear 59 15 53 11.7 81 81 N N/A 30.10 1019 10 16 N/A
8:53 pm 20:53 Clear 57 13.9 52 11.1 83 83 S 3 6 30.08 1019 10 16 N/A
9:53 pm 21:53 Clear 60 15.6 53 11.7 78 78 S 5 7 30.07 1018 10 16 N/A
10:53 pm 22:53 Clear 55 12.8 52 11.1 90 90 S 3 6 30.07 1018 10 16 N/A
11:53 pm 23:53 Clear 57 13.9 53 11.7 87 87 N N/A 30.07 1018 10 16 N/A

Powered by AerisWeather